Wind_Speed
11 10 11 11 11 11 10 10 9 9 8 7 7 7 6 6 4 9 11 10 8 8 8 7 7 7 5 2 3 4 6 10 12 13 14 15 16 18 20 21 22 23 23
11 12 11 12 12 12 12 11 10 10 9 9 9 7 6 2 8 7 12 10 6 6 7 7 8 8 7 2 2 4 6 9 9 10 11 11 11 12 13 14 16 19 21
11 12 12 13 13 13 12 12 11 11 11 10 10 8 8 7 6 9 8 11 10 7 7 7 7 8 8 9 11 11 12 12 9 7 5 7 6 5 6 7 8 9 10
10 11 12 13 13 13 12 12 12 11 11 12 12 9 9 8 9 9 10 8 11 12 8 7 8 9 10 10 11 11 12 11 9 7 5 6 5 6 5 5 6 7 8
10 11 11 12 12 13 12 12 12 13 12 11 13 11 11 10 10 10 10 11 10 9 12 11 11 12 11 11 13 13 14 14 12 10 6 5 7 10 10 9 9 7 7
13 12 12 13 12 12 13 13 13 13 14 14 14 12 13 11 10 8 8 10 11 12 13 13 13 12 12 13 15 15 16 16 15 14 13 9 9 9 9 11 12 11 14
13 13 14 14 14 13 13 13 14 14 14 14 16 15 8 8 9 8 10 13 13 16 16 13 12 13 15 16 16 15 15 15 14 14 13 16 15 14 11 12 15 17 18
15 14 15 15 15 15 14 14 15 16 15 16 16 12 8 5 7 10 17 13 16 16 15 16 15 15 17 15 17 16 15 15 14 14 13 14 15 12 12 13 10 11 12
15 15 14 15 16 16 15 15 15 15 17 14 14 10 5 3 16 6 9 14 14 18 19 19 21 21 19 18 16 18 16 15 15 15 14 15 15 17 19 19 17 15 14
16 14 13 14 15 15 15 16 16 16 17 16 14 12 12 13 8 11 7 10 19 18 19 24 21 22 22 19 19 18 16 17 17 16 16 15 16 16 13 16 18 14 14
12 11 12 13 14 14 14 14 15 16 17 18 17 17 17 16 16 17 27 23 22 21 22 25 28 25 25 24 21 19 18 17 18 18 18 17 17 16 14 16 20 18 17
10 11 12 12 12 12 13 14 16 17 18 20 20 20 20 20 20 16 22 32 33 32 27 26 28 29 26 25 24 21 20 19 20 20 19 19 20 21 20 22 24 21 19
6 10 12 13 13 14 16 17 18 19 19 20 21 21 22 23 23 25 26 31 35 38 35 32 29 27 26 25 24 24 22 22 21 22 22 22 23 24 25 25 25 24 23
7 9 10 12 13 15 16 17 19 20 21 22 23 23 24 24 23 25 28 29 36 37 38 35 31 29 26 28 28 27 26 26 25 26 25 26 25 26 27 26 26 26 25
8 11 13 15 16 17 18 19 20 21 21 21 22 24 25 26 26 26 26 27 29 32 36 36 30 26 25 27 31 32 35 31 29 30 31 30 29 29 28 28 27 27 26
11 13 15 16 17 18 18 19 20 20 21 22 23 24 25 26 27 27 28 29 30 34 42 41 42 38 32 32 35 38 38 37 35 32 32 33 32 31 30 29 29 29 27
12 14 15 17 18 19 20 21 21 22 23 24 24 25 26 26 27 28 28 28 30 32 40 44 40 39 37 33 32 35 40 42 42 37 36 34 33 33 30 29 29 29 29
11 14 16 18 20 21 21 21 22 22 23 24 26 26 27 27 27 27 28 29 29 30 34 43 39 36 36 34 34 34 37 41 45 43 39 38 36 36 36 31 31 30 30
13 16 19 21 22 23 22 22 22 23 25 26 26 27 28 27 29 29 29 29 29 29 30 35 40 36 36 35 37 36 36 39 42 43 44 41 41 37 38 36 32 31 31
17 20 22 23 25 25 24 23 24 26 28 28 28 28 27 27 28 28 29 31 32 36 36 35 38 38 36 33 29 33 35 34 37 38 42 45 41 34 35 34 33 32 30
21 24 26 27 26 26 25 25 27 29 30 31 30 29 28 27 26 28 32 34 31 29 30 34 35 33 34 32 30 30 34 35 36 35 39 42 38 37 37 34 31 32 30
25 27 28 28 27 26 26 26 28 30 31 32 33 31 29 28 28 28 29 29 28 27 29 32 36 35 36 36 36 34 35 34 35 35 35 42 41 36 34 34 31 28 26
30 30 30 28 28 26 24 24 26 29 30 31 32 31 30 28 25 28 28 28 28 28 30 31 35 36 39 37 36 36 38 40 41 39 36 36 33 34 32 27 26 23 22
32 31 30 28 27 26 25 26 28 31 32 32 32 28 26 29 28 28 28 32 32 32 34 35 37 39 38 37 35 37 38 37 39 40 40 41 41 37 30 25 23 22 25
33 31 29 27 27 26 25 27 29 31 32 32 31 28 25 28 30 28 29 31 34 37 35 35 37 37 38 36 34 36 40 37 37 33 34 38 36 33 31 28 25 25 25
31 29 28 26 25 27 27 27 29 32 34 34 32 31 30 25 27 27 28 32 37 41 41 40 39 40 40 38 34 33 36 37 34 30 35 31 31 30 20 25 27 24 25
Wind_Direction
359 356 356 354 351 350 351 350 349 345 341 342 341 333 326 313 271 268 283 293 290 280 272 272 284 289 296 345 333 328 297 281 275 273 271 274 273 269 268 267 265 264 263
359 360 358 354 354 352 351 349 350 349 346 343 338 333 321 321 305 269 282 298 303 294 294 294 293 284 277 275 288 300 308 291 295 294 292 287 289 288 281 278 272 267 265
357 357 355 356 354 353 354 354 354 352 346 343 341 328 319 300 261 289 284 295 299 296 295 295 297 299 299 298 293 296 298 303 299 290 339 323 318 336 337 311 299 291 279
348 350 352 353 352 352 352 353 353 356 352 350 346 335 325 310 302 287 288 275 295 305 308 307 306 304 300 294 291 292 295 297 296 283 278 288 258 262 257 268 275 273 270
332 337 341 343 346 346 347 349 350 349 350 350 347 336 328 315 276 277 284 295 298 294 301 300 296 297 295 295 295 295 295 295 294 287 265 292 283 262 254 260 255 282 273
317 323 326 331 334 336 340 340 339 340 340 342 342 335 329 327 318 299 293 299 301 302 300 301 305 305 302 302 300 300 296 293 291 287 282 263 272 279 273 266 267 266 265
305 312 315 318 320 323 327 329 333 334 334 333 335 337 352 337 327 320 329 311 309 308 311 310 308 304 305 307 303 298 295 292 288 282 274 272 272 279 284 275 271 258 262
302 306 308 310 309 309 313 317 324 328 333 333 337 343 342 332 288 317 310 309 306 301 306 307 308 309 309 307 305 302 300 296 292 286 279 269 270 279 287 290 295 283 256
301 302 304 306 306 304 305 308 314 321 324 331 326 331 327 299 301 284 303 291 307 314 311 312 310 306 307 308 304 303 301 294 292 288 284 279 278 279 283 288 290 285 278
296 298 303 307 308 305 303 304 308 314 315 318 317 313 305 296 303 303 289 281 299 301 304 306 306 307 305 304 304 301 300 297 293 290 287 282 279 278 282 285 289 286 283
302 303 304 309 312 311 308 304 304 305 309 310 309 306 301 299 291 281 294 304 297 291 298 299 302 304 306 301 300 296 297 295 291 289 286 284 280 277 278 282 289 287 281
298 309 314 321 320 318 314 309 308 308 307 305 304 301 298 296 296 282 280 293 295 301 301 297 293 302 305 304 303 294 292 291 291 290 288 287 285 280 275 281 288 286 280
291 291 307 312 314 313 312 311 309 309 308 306 306 304 299 297 296 293 289 291 294 300 300 301 301 301 302 301 303 300 295 291 287 285 285 287 288 284 282 280 282 283 281
306 308 315 320 320 317 314 311 309 309 308 306 304 302 301 299 295 292 289 292 295 295 300 301 305 306 302 297 300 301 298 296 289 287 286 287 289 287 286 284 281 279 279
325 325 323 321 320 317 314 312 310 309 306 304 302 300 299 299 298 296 292 288 283 283 293 298 298 299 299 295 293 292 296 297 292 291 289 286 287 285 284 284 282 279 276
328 327 327 327 326 324 322 319 317 313 308 306 304 302 300 299 298 296 294 291 285 279 276 289 296 299 297 287 288 292 293 295 294 293 289 286 284 279 279 279 278 277 275
333 334 336 337 336 334 331 326 322 317 313 311 308 305 303 302 297 295 293 290 286 282 279 286 290 297 297 294 288 285 286 287 289 293 293 290 286 281 277 275 274 273 272
346 347 346 344 340 336 333 329 323 320 317 316 315 311 308 307 302 299 292 287 286 286 286 288 292 292 295 298 294 285 280 281 281 284 287 291 288 283 281 275 272 270 269
345 344 341 339 336 333 331 329 324 321 320 317 316 314 312 307 304 302 299 294 290 286 282 285 289 291 292 291 292 290 284 277 278 279 280 284 285 283 278 275 270 267 267
335 335 335 334 333 330 330 328 324 321 317 317 316 314 312 308 303 302 298 294 293 293 292 290 291 293 291 291 289 288 285 281 279 278 278 281 285 279 271 270 270 265 263
330 331 332 330 329 327 328 326 322 317 316 314 315 315 312 306 296 288 287 290 293 289 291 294 292 292 294 294 285 286 283 284 283 280 279 280 277 279 273 273 268 268 261
328 327 327 326 325 324 325 322 318 316 315 315 315 313 311 307 303 294 290 288 291 292 290 288 289 290 292 292 292 286 282 278 279 279 278 276 274 272 268 271 271 264 254
326 324 324 322 321 320 322 319 321 321 319 319 318 317 311 307 309 305 307 309 303 300 297 295 292 291 293 291 292 290 285 281 271 279 269 263 263 263 269 267 264 264 256
319 320 320 320 318 324 325 324 324 324 324 323 320 317 307 302 307 312 308 304 297 300 300 296 294 294 294 294 289 290 285 286 281 278 269 257 266 263 270 254 258 255 256
316 317 315 317 321 323 326 326 325 322 321 319 320 319 313 303 305 305 299 297 299 299 300 297 291 292 288 290 288 285 284 276 272 265 255 256 259 257 259 255 252 252 256
310 311 314 317 319 321 327 327 324 322 319 320 319 314 319 313 305 304 299 296 298 301 304 302 299 296 297 290 295 287 273 267 271 266 256 245 248 247 249 266 255 255 249
Height
1537 1536 1534 1532 1531 1529 1527 1525 1524 1522 1521 1519 1518 1517 1517 1517 1516 1514 1513 1512 1511 1511 1510 1510 1509 1509 1509 1509 1509 1508 1507 1507 1506 1506 1506 1506 1506 1507 1507 1508 1509 1509 1510
1536 1535 1533 1532 1530 1528 1527 1525 1523 1521 1520 1518 1517 1515 1515 1515 1514 1514 1511 1510 1509 1509 1509 1508 1508 1507 1507 1507 1507 1506 1505 1504 1504 1503 1503 1503 1502 1502 1502 1503 1503 1503 1504
1536 1534 1533 1531 1529 1528 1526 1524 1523 1521 1519 1517 1516 1514 1513 1513 1513 1511 1510 1508 1507 1507 1507 1506 1506 1505 1505 1505 1504 1503 1502 1502 1502 1501 1502 1501 1501 1501 1500 1500 1500 1500 1500
1535 1534 1533 1531 1529 1527 1526 1524 1522 1519 1518 1516 1515 1513 1512 1511 1510 1509 1509 1508 1506 1505 1506 1505 1504 1504 1503 1502 1502 1501 1500 1499 1499 1499 1499 1499 1498 1498 1498 1498 1497 1497 1497
1534 1533 1532 1530 1529 1527 1525 1523 1521 1518 1516 1515 1514 1512 1510 1509 1508 1507 1506 1506 1505 1505 1503 1503 1502 1501 1500 1500 1499 1498 1498 1497 1496 1496 1496 1496 1496 1495 1494 1494 1494 1495 1495
1532 1531 1530 1529 1528 1527 1525 1523 1521 1518 1515 1513 1512 1510 1507 1506 1505 1505 1504 1504 1503 1503 1502 1501 1500 1499 1499 1498 1497 1496 1495 1494 1494 1493 1493 1493 1493 1491 1491 1491 1491 1492 1491
1530 1529 1528 1527 1526 1525 1523 1522 1520 1517 1515 1512 1509 1507 1505 1504 1504 1503 1503 1502 1501 1499 1499 1498 1498 1497 1495 1494 1493 1493 1491 1490 1490 1489 1489 1488 1488 1488 1486 1486 1486 1487 1487
1527 1527 1526 1525 1523 1522 1521 1519 1518 1516 1514 1512 1509 1505 1503 1503 1503 1502 1501 1500 1500 1498 1497 1495 1494 1494 1493 1491 1490 1489 1488 1487 1486 1486 1485 1485 1484 1483 1482 1481 1481 1481 1482
1525 1524 1523 1522 1521 1519 1518 1517 1516 1514 1512 1512 1509 1509 1504 1503 1500 1499 1499 1499 1498 1496 1494 1492 1491 1490 1489 1488 1487 1485 1485 1484 1483 1482 1482 1481 1480 1479 1478 1477 1477 1476 1476
1521 1521 1520 1519 1518 1516 1515 1514 1513 1512 1511 1509 1509 1507 1505 1503 1500 1496 1495 1494 1494 1493 1491 1490 1488 1486 1485 1484 1483 1482 1481 1480 1479 1478 1478 1477 1477 1475 1474 1473 1472 1472 1471
1518 1518 1518 1516 1515 1514 1512 1511 1511 1510 1508 1507 1506 1505 1502 1500 1499 1496 1489 1488 1490 1490 1487 1485 1483 1482 1481 1479 1479 1478 1477 1476 1475 1475 1474 1473 1473 1472 1471 1469 1467 1467 1466
1517 1516 1515 1514 1513 1511 1510 1509 1507 1506 1505 1503 1502 1501 1499 1497 1495 1494 1489 1484 1482 1480 1481 1480 1478 1477 1476 1474 1473 1473 1473 1472 1471 1470 1469 1469 1468 1467 1466 1464 1463 1462 1461
1515 1514 1514 1512 1511 1509 1507 1506 1504 1503 1501 1499 1497 1496 1494 1492 1490 1489 1486 1482 1478 1473 1471 1472 1472 1471 1471 1470 1469 1468 1467 1467 1466 1465 1465 1464 1463 1461 1461 1459 1458 1457 1456
1513 1512 1511 1510 1509 1507 1505 1503 1500 1498 1497 1495 1492 1491 1489 1487 1486 1484 1481 1479 1472 1468 1464 1463 1464 1464 1463 1462 1463 1463 1462 1462 1461 1459 1458 1457 1456 1454 1454 1453 1452 1451 1450
1512 1511 1509 1507 1506 1504 1501 1499 1497 1494 1492 1490 1488 1485 1483 1481 1479 1477 1476 1475 1473 1465 1457 1456 1458 1459 1459 1457 1455 1455 1455 1456 1455 1453 1452 1451 1450 1448 1447 1445 1445 1444 1443
1510 1508 1507 1505 1502 1500 1497 1495 1493 1490 1487 1485 1482 1480 1477 1475 1473 1472 1470 1468 1467 1463 1453 1453 1450 1451 1452 1451 1449 1446 1444 1445 1446 1447 1446 1444 1443 1441 1440 1439 1437 1437 1436
1507 1506 1504 1502 1499 1496 1493 1491 1488 1485 1482 1479 1477 1474 1471 1469 1467 1465 1464 1462 1459 1457 1448 1443 1444 1443 1442 1442 1441 1440 1437 1435 1434 1436 1437 1436 1435 1433 1432 1431 1430 1430 1429
1505 1503 1501 1499 1496 1493 1490 1487 1484 1481 1477 1474 1471 1468 1465 1463 1460 1459 1457 1454 1452 1450 1446 1436 1437 1435 1434 1433 1432 1431 1430 1428 1425 1425 1426 1426 1425 1424 1423 1423 1422 1421 1421
1503 1501 1498 1495 1492 1489 1486 1483 1479 1476 1473 1470 1466 1463 1460 1457 1454 1451 1449 1446 1444 1442 1439 1433 1427 1428 1426 1426 1423 1421 1420 1418 1418 1417 1416 1417 1416 1416 1414 1413 1413 1413 1412
1499 1497 1494 1491 1488 1484 1481 1477 1474 1470 1467 1464 1461 1457 1454 1451 1448 1445 1442 1439 1436 1433 1429 1425 1420 1419 1418 1417 1416 1413 1410 1410 1407 1409 1408 1406 1406 1406 1406 1405 1404 1404 1403
1495 1492 1489 1486 1482 1479 1476 1472 1468 1464 1460 1457 1454 1451 1448 1445 1442 1439 1436 1432 1429 1426 1423 1419 1414 1411 1409 1409 1408 1406 1403 1401 1399 1399 1397 1396 1397 1397 1396 1396 1396 1395 1395
1490 1487 1484 1480 1477 1474 1471 1467 1462 1457 1453 1449 1446 1443 1440 1437 1434 1431 1428 1425 1424 1420 1417 1413 1409 1406 1402 1401 1399 1397 1395 1393 1388 1390 1387 1384 1387 1385 1386 1386 1388 1388 1387
1485 1482 1478 1475 1471 1469 1465 1461 1457 1452 1447 1443 1439 1435 1431 1429 1427 1423 1420 1418 1416 1414 1411 1407 1402 1399 1395 1394 1392 1388 1386 1383 1379 1379 1379 1375 1377 1376 1378 1378 1381 1381 1381
1480 1476 1472 1469 1466 1463 1459 1455 1450 1445 1441 1437 1433 1429 1426 1423 1421 1418 1414 1410 1408 1406 1403 1400 1395 1390 1387 1384 1383 1379 1375 1372 1369 1368 1369 1366 1367 1368 1371 1372 1374 1376 1375
1474 1470 1467 1463 1459 1456 1453 1449 1444 1439 1435 1430 1426 1423 1420 1417 1415 1413 1408 1403 1400 1396 1393 1389 1385 1381 1378 1375 1373 1370 1365 1363 1358 1357 1357 1358 1359 1361 1363 1364 1367 1369 1369
1468 1464 1460 1457 1454 1450 1447 1443 1438 1433 1427 1422 1419 1415 1413 1411 1408 1406 1402 1397 1391 1386 1383 1378 1374 1370 1367 1364 1362 1360 1355 1352 1351 1349 1346 1351 1352 1354 1356 1357 1359 1361 1362